CW2014 Weather Reports


time (UTC)temp
F
wind
direction
speed
knots
gust
knots
rain 1hr
in
rain 24hr
in
rain mn
in
humidity
%
barometer
mb
20260903141548 83 174 1.7 6.1 0.00 0.00 0.00 63 1011.9
20260903141025 83 184 1.7 6.1 0.00 0.00 0.00 64 1012.0
20260903140525 82 224 1.7 5.2 0.00 0.00 0.00 65 1011.9
20260903140048 82 178 0.9 4.3 0.00 0.00 0.00 67 1011.8
20260903135526 82 164 1.7 4.3 0.00 0.00 0.00 68 1011.7
20260903135026 81 173 0.9 4.3 0.00 0.00 0.00 68 1011.6
20260903134551 81 0 0.0 2.6 0.00 0.00 0.00 68 1011.5
20260903134024 81 173 0.9 3.5 0.00 0.00 0.00 68 1011.5
20260903133525 81 173 0.9 3.5 0.00 0.00 0.00 68 1011.5
20260903133059 81 173 1.7 3.5 0.00 0.00 0.00 68 1011.5
20260903132523 81 184 0.9 4.3 0.00 0.00 0.00 69 1011.4
20260903132024 81 155 0.9 4.3 0.00 0.00 0.00 69 1011.4
20260903131549 81 155 0.9 4.3 0.00 0.00 0.00 69 1011.2
20260903131026 81 155 0.9 4.3 0.00 0.00 0.00 69 1011.2
20260903130525 81 155 0.9 2.6 0.00 0.00 0.00 69 1011.1
20260903130046 81 155 0.9 3.5 0.00 0.00 0.00 69 1011.1
20260903125525 81 0 0.9 3.5 0.00 0.00 0.00 69 1011.2
20260903125026 81 163 0.9 3.5 0.00 0.00 0.00 69 1011.1
20260903124553 80 163 1.7 3.5 0.00 0.00 0.00 69 1011.1
20260903124023 80 150 1.7 3.5 0.00 0.00 0.00 69 1011.1
20260903123526 81 145 0.0 2.6 0.00 0.00 0.00 69 1011.1
20260903123050 81 0 0.0 1.7 0.00 0.00 0.00 68 1010.8
20260903122525 81 145 0.9 1.7 0.00 0.00 0.00 68 1010.8
20260903122027 81 145 0.0 1.7 0.00 0.00 0.00 68 1010.7
20260903121545 81 145 0.9 1.7 0.00 0.00 0.00 68 1010.7
20260903121025 81 145 0.0 1.7 0.00 0.00 0.00 67 1010.6
20260903120524 81 0 0.0 2.6 0.00 0.00 0.00 67 1010.7
20260903115525 81 145 0.9 2.6 0.00 0.00 0.00 66 1010.7
20260903115025 81 157 0.9 3.5 0.00 0.00 0.00 66 1010.6
20260903114546 81 0 0.0 4.3 0.00 0.00 0.00 66 1010.5
20260903114025 81 167 0.9 4.3 0.00 0.00 0.00 66 1010.4
20260903113526 81 128 0.0 3.5 0.00 0.00 0.00 65 1010.4
20260903113046 82 0 0.0 1.7 0.00 0.00 0.00 65 1010.4
20260903112526 82 159 0.0 1.7 0.00 0.00 0.00 64 1010.4
20260903112027 82 159 0.0 1.7 0.00 0.00 0.00 64 1010.4
20260903111547 82 159 0.0 3.5 0.00 0.00 0.00 63 1010.3
20260903111026 82 160 0.0 3.5 0.00 0.00 0.00 62 1010.2
20260903110527 83 0 0.9 3.5 0.00 0.00 0.00 61 1010.3
20260903110044 83 159 0.9 3.5 0.00 0.00 0.00 61 1010.2
20260903105524 83 169 0.9 3.5 0.00 0.00 0.00 60 1010.2
20260903105024 84 0 0.9 3.5 0.00 0.00 0.00 58 1010.3
20260903104550 84 143 0.0 2.6 0.00 0.00 0.00 57 1010.3
20260903104023 84 23 0.0 1.7 0.00 0.00 0.00 56 1010.2
20260903103528 84 0 0.0 3.5 0.00 0.00 0.00 55 1010.2
20260903103047 84 0 0.9 3.5 0.00 0.00 0.00 56 1010.3
20260903102526 84 351 0.9 3.5 0.00 0.00 0.00 55 1010.3
20260903102025 84 0 0.0 4.3 0.00 0.00 0.00 55 1010.3
20260903101547 84 84 0.0 4.3 0.00 0.00 0.00 55 1010.3
20260903101024 84 70 0.9 3.5 0.00 0.00 0.00 55 1010.3
20260903100526 85 58 0.9 3.5 0.00 0.00 0.00 54 1010.3
20260903100050 85 74 0.9 2.6 0.00 0.00 0.00 53 1010.3
20260903095524 85 0 0.0 3.5 0.00 0.00 0.00 52 1010.2
20260903095024 85 194 0.9 3.5 0.00 0.00 0.00 52 1010.3
20260903094552 85 198 0.0 2.6 0.00 0.00 0.00 51 1010.4
20260903094025 86 228 0.0 2.6 0.00 0.00 0.00 51 1010.3
20260903093525 86 227 0.9 2.6 0.00 0.00 0.00 51 1010.3
20260903093113 86 250 0.9 2.6 0.00 0.00 0.00 50 1010.3
20260903092524 86 233 0.0 2.6 0.00 0.00 0.00 50 1010.3
20260903092027 86 297 0.9 2.6 0.00 0.00 0.00 50 1010.4
20260903091546 86 247 0.0 2.6 0.00 0.00 0.00 49 1010.3
20260903091024 86 229 0.9 5.2 0.00 0.00 0.00 49 1010.2
20260903090523 86 0 0.0 5.2 0.00 0.00 0.00 48 1010.2
20260903090050 87 225 1.7 5.2 0.00 0.00 0.00 48 1010.2
20260903085523 87 226 0.9 5.2 0.00 0.00 0.00 48 1010.2
20260903085024 87 230 1.7 6.1 0.00 0.00 0.00 47 1010.1
20260903084546 87 212 1.7 6.1 0.00 0.00 0.00 47 1010.2
20260903084026 87 197 1.7 6.1 0.00 0.00 0.00 46 1010.1
20260903083525 88 277 1.7 6.1 0.00 0.00 0.00 46 1010.1
20260903083045 88 227 2.6 6.1 0.00 0.00 0.00 45 1010.1
20260903082524 88 257 1.7 7.0 0.00 0.00 0.00 45 1010.1
20260903082025 88 209 1.7 7.0 0.00 0.00 0.00 45 1010.1
20260903081553 88 248 1.7 7.0 0.00 0.00 0.00 45 1010.2
20260903081025 88 220 2.6 7.0 0.00 0.00 0.00 46 1010.1
20260903080525 88 223 1.7 6.1 0.00 0.00 0.00 47 1010.1
20260903080100 88 213 2.6 5.2 0.00 0.00 0.00 48 1010.1
20260903075525 88 204 1.7 5.2 0.00 0.00 0.00 48 1010.2
20260903075024 88 195 0.9 4.3 0.00 0.00 0.00 49 1010.1
20260903074600 88 228 1.7 4.3 0.00 0.00 0.00 49 1010.2
20260903074024 88 231 0.0 2.6 0.00 0.00 0.00 49 1010.1
20260903073525 88 302 0.0 3.5 0.00 0.00 0.00 49 1010.0
20260903073105 89 307 0.9 3.5 0.00 0.00 0.00 48 1010.1
20260903072524 89 311 0.9 4.3 0.00 0.00 0.00 48 1010.1
20260903072025 89 0 1.7 4.3 0.00 0.00 0.00 47 1010.2
20260903071549 89 309 0.9 6.1 0.00 0.00 0.00 47 1010.1
20260903071024 89 254 0.9 6.1 0.00 0.00 0.00 47 1010.0
20260903070526 90 244 1.7 6.1 0.00 0.00 0.00 46 1010.0
20260903070047 90 207 1.7 7.0 0.00 0.00 0.00 46 1010.1
20260903065526 90 256 1.7 7.0 0.00 0.00 0.00 46 1010.0
20260903065024 89 241 0.9 5.2 0.00 0.00 0.00 46 1010.0
20260903064546 90 201 0.9 3.5 0.00 0.00 0.00 46 1010.0
20260903064024 89 220 0.9 3.5 0.00 0.00 0.00 46 1010.0
20260903063524 90 241 0.9 3.5 0.00 0.00 0.00 46 1010.0
20260903063053 90 200 1.7 3.5 0.00 0.00 0.00 46 1010.0
20260903062523 90 219 0.9 3.5 0.00 0.00 0.00 45 1010.0
20260903062028 90 211 0.9 3.5 0.00 0.00 0.00 45 1010.0
20260903061555 90 240 0.0 3.5 0.00 0.00 0.00 45 1009.9
20260903061027 90 211 0.0 2.6 0.00 0.00 0.00 45 1009.9
20260903060524 90 234 0.0 3.5 0.00 0.00 0.00 45 1009.9
20260903060049 90 0 0.9 3.5 0.00 0.00 0.00 44 1009.8
20260903055525 90 231 0.9 3.5 0.00 0.00 0.00 44 1009.8
20260903055024 91 238 0.0 3.5 0.00 0.00 0.00 44 1009.8
20260903054548 91 254 0.9 3.5 0.00 0.00 0.00 44 1009.8
20260903054024 91 220 0.9 3.5 0.00 0.00 0.00 43 1009.8
20260903053525 91 251 0.9 3.5 0.00 0.00 0.00 43 1009.9
20260903053053 91 242 0.9 3.5 0.00 0.00 0.00 43 1009.8
20260903052528 91 184 0.9 2.6 0.00 0.00 0.00 42 1009.8
20260903052025 91 184 0.9 3.5 0.00 0.00 0.00 42 1009.9
20260903051550 91 184 0.9 3.5 0.00 0.00 0.00 42 1009.9
20260903051025 91 178 0.9 3.5 0.00 0.00 0.00 41 1009.9
20260903050525 91 178 0.9 3.5 0.00 0.00 0.00 41 1009.8
20260903050042 92 0 0.9 3.5 0.00 0.00 0.00 41 1009.8
20260903045524 92 179 0.9 3.5 0.00 0.00 0.00 41 1009.7
20260903045024 92 194 0.9 4.3 0.00 0.00 0.00 40 1009.9
20260903044555 92 0 0.9 4.3 0.00 0.00 0.00 40 1009.8
20260903044027 92 0 1.7 4.3 0.00 0.00 0.00 40 1009.8
20260903043528 93 0 0.9 3.5 0.00 0.00 0.00 39 1009.9
20260903043047 93 229 0.9 3.5 0.00 0.00 0.00 39 1009.7
20260903042527 93 0 0.9 2.6 0.00 0.00 0.00 39 1009.7
20260903042024 93 265 0.0 2.6 0.00 0.00 0.00 38 1009.7
20260903041546 93 299 0.9 2.6 0.00 0.00 0.00 38 1009.6
20260903041025 94 299 0.9 2.6 0.00 0.00 0.00 37 1009.6
20260903040524 94 294 0.9 2.6 0.00 0.00 0.00 37 1009.6
20260903040055 94 298 0.0 2.6 0.00 0.00 0.00 37 1009.6
20260903035524 94 0 0.9 2.6 0.00 0.00 0.00 36 1009.5
20260903035025 94 262 0.9 2.6 0.00 0.00 0.00 36 1009.5
20260903034551 94 266 0.9 2.6 0.00 0.00 0.00 36 1009.6
20260903034026 94 251 0.0 2.6 0.00 0.00 0.00 36 1009.5
20260903033526 95 277 0.0 2.6 0.00 0.00 0.00 36 1009.4
20260903033047 95 282 0.0 2.6 0.00 0.00 0.00 36 1009.4
20260903032529 95 0 0.9 2.6 0.00 0.00 0.00 35 1009.4
20260903032025 95 262 0.9 3.5 0.00 0.00 0.00 35 1009.3
20260903031603 95 261 0.9 3.5 0.00 0.00 0.00 35 1009.1
20260903031025 95 304 0.9 3.5 0.00 0.00 0.00 35 1009.2
20260903030524 95 302 0.9 3.5 0.00 0.00 0.00 35 1009.2
20260903030056 95 299 0.9 3.5 0.00 0.00 0.00 35 1009.1
20260903025524 96 274 0.9 6.1 0.00 0.00 0.00 35 1009.0
20260903025029 96 292 1.7 6.1 0.00 0.00 0.00 34 1008.9
20260903024554 96 303 0.9 4.3 0.00 0.00 0.00 34 1008.9
20260903024026 96 257 0.9 6.1 0.00 0.00 0.00 34 1009.0
20260903023527 96 299 1.7 6.1 0.00 0.00 0.00 34 1008.9
20260903023047 96 273 0.9 5.2 0.00 0.00 0.00 33 1008.9
20260903022525 96 290 1.7 6.1 0.00 0.00 0.00 33 1008.9
20260903022025 96 302 1.7 6.1 0.00 0.00 0.00 33 1008.9
20260903021546 96 306 1.7 6.1 0.00 0.00 0.00 33 1008.8
20260903021026 96 261 0.9 6.1 0.00 0.00 0.00 33 1008.9
20260903020525 97 275 1.7 7.0 0.00 0.00 0.00 32 1008.7
20260903020054 97 282 0.9 7.0 0.00 0.00 0.00 32 1008.7
20260903015527 97 292 1.7 6.1 0.00 0.00 0.00 32 1008.7
20260903015028 97 270 1.7 7.0 0.00 0.00 0.00 32 1008.7
20260903014555 97 0 2.6 7.0 0.00 0.00 0.00 32 1008.7
20260903014026 98 290 1.7 7.0 0.00 0.00 0.00 31 1008.5
20260903013525 98 288 1.7 7.0 0.00 0.00 0.00 31 1008.5
20260903013046 98 303 1.7 7.0 0.00 0.00 0.00 31 1008.3
20260903012528 98 266 0.9 7.8 0.00 0.00 0.00 31 1008.3
20260903012024 98 297 2.6 7.8 0.00 0.00 0.00 30 1008.3
20260903011557 98 290 2.6 7.8 0.00 0.00 0.00 30 1008.3
20260903011028 99 300 1.7 7.0 0.00 0.00 0.00 30 1008.3
20260903010527 99 299 1.7 7.0 0.00 0.00 0.00 30 1008.3
20260903010051 99 275 2.6 7.0 0.00 0.00 0.00 30 1008.4
20260903005523 99 256 1.7 7.0 0.00 0.00 0.00 30 1008.5
20260903005026 99 0 0.9 7.0 0.00 0.00 0.00 30 1008.5
20260903004550 99 0 0.0 7.8 0.00 0.00 0.00 29 1008.5
20260903004026 99 246 0.9 7.8 0.00 0.00 0.00 29 1008.3
20260903003526 99 246 1.7 6.1 0.00 0.00 0.00 29 1008.3
20260903003047 100 313 2.6 6.1 0.00 0.00 0.00 29 1008.3
20260903002525 100 304 1.7 5.2 0.00 0.00 0.00 28 1008.5
20260903002026 101 297 0.9 7.0 0.00 0.00 0.00 28 1008.6
20260903001600 101 275 1.7 7.0 0.00 0.00 0.00 28 1008.6
20260903001026 101 327 0.9 7.0 0.00 0.00 0.00 27 1008.7
20260903000525 101 301 1.7 7.0 0.00 0.00 0.00 28 1008.7
20260903000050 101 247 1.7 8.7 0.00 0.00 0.00 28 1008.6
20260902235527 101 251 2.6 8.7 0.00 0.00 0.00 28 1008.6
20260902235025 101 283 0.9 7.0 0.00 0.00 0.00 28 1008.6
20260902234558 101 0 2.6 7.0 0.00 0.00 0.00 27 1008.7
20260902234027 102 341 1.7 7.0 0.00 0.00 0.00 27 1008.8
20260902233527 102 262 2.6 7.0 0.00 0.00 0.00 27 1008.8
20260902233047 102 309 2.6 7.8 0.00 0.00 0.00 27 1008.8
20260902232529 103 242 1.7 7.8 0.00 0.00 0.00 27 1009.0
20260902232025 102 257 0.9 6.1 0.00 0.00 0.00 27 1008.9
20260902231559 102 187 2.6 7.8 0.00 0.00 0.00 28 1009.1
20260902231026 102 264 0.9 9.6 0.00 0.00 0.00 28 1009.1
20260902230531 102 226 2.6 9.6 0.00 0.00 0.00 28 1009.1
20260902230051 101 223 3.5 10.4 0.00 0.00 0.00 28 1009.4
20260902225527 101 273 4.3 10.4 0.00 0.00 0.00 28 1009.4
20260902225027 102 309 3.5 10.4 0.00 0.00 0.00 27 1009.4
20260902224553 101 331 3.5 9.6 0.00 0.00 0.00 28 1009.4
20260902224027 101 301 3.5 9.6 0.00 0.00 0.00 27 1009.4
20260902223531 102 314 1.7 9.6 0.00 0.00 0.00 29 1009.5
20260902223052 103 132 3.5 9.6 0.00 0.00 0.00 27 1009.6
20260902222525 102 220 2.6 5.2 0.00 0.00 0.00 28 1009.7
20260902222032 102 333 0.9 6.1 0.00 0.00 0.00 29 1009.8
20260902221550 102 297 0.9 7.0 0.00 0.00 0.00 29 1009.7
20260902221028 102 265 2.6 9.6 0.00 0.00 0.00 29 1010.0
20260902220525 101 252 1.7 9.6 0.00 0.00 0.00 29 1009.9
20260902220058 102 231 1.7 7.8 0.00 0.00 0.00 29 1010.1
20260902215525 102 262 1.7 7.8 0.00 0.00 0.00 29 1010.2
20260902215025 101 205 1.7 7.8 0.00 0.00 0.00 31 1010.1
20260902214545 101 315 2.6 7.8 0.00 0.00 0.00 30 1010.0
20260902214026 102 196 2.6 7.0 0.00 0.00 0.00 31 1010.3
20260902213527 101 183 1.7 10.4 0.00 0.00 0.00 31 1010.3
20260902213102 101 210 4.3 11.3 0.00 0.00 0.00 31 1010.5
20260902212525 101 200 1.7 11.3 0.00 0.00 0.00 31 1010.4
20260902212025 102 211 2.6 9.6 0.00 0.00 0.00 30 1010.6
20260902211550 101 197 4.3 10.4 0.00 0.00 0.00 31 1010.7
20260902211030 100 213 3.5 10.4 0.00 0.00 0.00 32 1010.6
20260902210527 100 292 2.6 9.6 0.00 0.00 0.00 32 1010.7
20260902210048 100 263 3.5 9.6 0.00 0.00 0.00 33 1010.8
20260902205525 100 290 4.3 12.2 0.00 0.00 0.00 32 1010.8
20260902205026 101 217 4.3 12.2 0.00 0.00 0.00 32 1010.8
20260902204548 101 226 2.6 9.6 0.00 0.00 0.00 31 1011.1
20260902204025 101 258 3.5 9.6 0.00 0.00 0.00 31 1011.1
20260902203525 101 180 4.3 9.6 0.00 0.00 0.00 32 1011.2
20260902203101 101 218 2.6 8.7 0.00 0.00 0.00 32 1011.1
20260902202525 101 47 0.9 6.1 0.00 0.00 0.00 32 1011.3
20260902202026 100 207 0.9 8.7 0.00 0.00 0.00 34 1011.4
20260902201547 99 310 2.6 9.6 0.00 0.00 0.00 34 1011.5
20260902201023 99 0 2.6 9.6 0.00 0.00 0.00 34 1011.6
20260902200526 100 297 1.7 6.1 0.00 0.00 0.00 34 1011.7
20260902200056 99 169 0.9 6.1 0.00 0.00 0.00 34 1011.8
20260902195526 98 297 1.7 7.0 0.00 0.00 0.00 35 1012.0
20260902195029 99 227 2.6 7.0 0.00 0.00 0.00 34 1012.1
20260902194547 100 264 1.7 7.0 0.00 0.00 0.00 34 1012.1
20260902194026 100 198 2.6 8.7 0.00 0.00 0.00 34 1012.1
20260902193525 100 161 2.6 8.7 0.00 0.00 0.00 34 1012.2
20260902193049 100 189 1.7 7.8 0.00 0.00 0.00 35 1012.3
20260902192525 99 200 1.7 7.8 0.00 0.00 0.00 35 1012.2
20260902192031 99 214 3.5 7.0 0.00 0.00 0.00 35 1012.3
20260902191552 99 224 2.6 7.8 0.00 0.00 0.00 35 1012.5
20260902191029 99 161 2.6 7.8 0.00 0.00 0.00 35 1012.5
20260902190525 99 188 1.7 8.7 0.00 0.00 0.00 35 1012.5
20260902190044 99 189 2.6 8.7 0.00 0.00 0.00 36 1012.7
20260902185525 97 218 0.9 6.1 0.00 0.00 0.00 38 1012.6
20260902185026 97 301 0.9 6.1 0.00 0.00 0.00 37 1012.8
20260902184609 98 300 0.9 7.0 0.00 0.00 0.00 37 1012.9
20260902184030 98 171 2.6 7.0 0.00 0.00 0.00 38 1012.9
20260902183524 97 171 2.6 7.0 0.00 0.00 0.00 39 1013.1
20260902183049 97 158 1.7 7.8 0.00 0.00 0.00 39 1013.1
20260902182527 97 169 1.7 8.7 0.00 0.00 0.00 39 1013.2
20260902182029 97 148 2.6 8.7 0.00 0.00 0.00 39 1013.3
20260902181549 97 0 1.7 7.8 0.00 0.00 0.00 38 1013.4
20260902181026 97 190 3.5 7.8 0.00 0.00 0.00 38 1013.4
20260902180525 97 208 0.9 7.0 0.00 0.00 0.00 39 1013.4
20260902180046 97 207 2.6 7.0 0.00 0.00 0.00 40 1013.5
20260902175523 96 287 2.6 7.0 0.00 0.00 0.00 40 1013.4
20260902175026 96 250 0.9 5.2 0.00 0.00 0.00 40 1013.4
20260902174554 96 192 0.9 5.2 0.00 0.00 0.00 40 1013.4
20260902174029 96 224 0.9 6.1 0.00 0.00 0.00 39 1013.5
20260902173525 97 302 1.7 7.8 0.00 0.00 0.00 39 1013.6
20260902173049 96 0 0.9 7.8 0.00 0.00 0.00 40 1013.6
20260902172529 95 217 2.6 7.0 0.00 0.00 0.00 41 1013.7
20260902172026 95 0 0.0 6.1 0.00 0.00 0.00 41 1013.8
20260902171549 95 252 1.7 5.2 0.00 0.00 0.00 41 1013.7
20260902171025 95 199 0.9 5.2 0.00 0.00 0.00 41 1013.7
20260902170526 95 227 0.9 4.3 0.00 0.00 0.00 42 1013.7
20260902170047 94 261 0.9 4.3 0.00 0.00 0.00 42 1013.7
20260902165524 95 281 0.9 6.1 0.00 0.00 0.00 42 1013.5
20260902165024 95 218 0.9 6.1 0.00 0.00 0.00 43 1013.7
20260902164552 95 116 1.7 6.1 0.00 0.00 0.00 43 1013.6
20260902164024 94 197 0.9 5.2 0.00 0.00 0.00 44 1013.5
20260902163524 94 175 0.9 3.5 0.00 0.00 0.00 45 1013.5
20260902163101 93 74 0.9 3.5 0.00 0.00 0.00 48 1013.5
20260902162523 93 177 0.9 4.3 0.00 0.00 0.00 48 1013.5
20260902162028 92 284 0.9 4.3 0.00 0.00 0.00 49 1013.5
20260902161548 92 202 0.9 5.2 0.00 0.00 0.00 50 1013.5
20260902161029 91 0 0.9 7.0 0.00 0.00 0.00 51 1013.5
20260902160529 91 207 1.7 7.0 0.00 0.00 0.00 51 1013.4
20260902160050 91 172 1.7 7.0 0.00 0.00 0.00 51 1013.4
20260902155525 91 167 0.9 5.2 0.00 0.00 0.00 52 1013.4
20260902155029 90 163 1.7 5.2 0.00 0.00 0.00 53 1013.4
20260902154548 90 0 0.0 3.5 0.00 0.00 0.00 53 1013.4
20260902154024 90 268 0.9 4.3 0.00 0.00 0.00 54 1013.3
20260902153526 89 214 0.9 4.3 0.00 0.00 0.00 53 1013.3
20260902153046 89 177 0.9 4.3 0.00 0.00 0.00 54 1013.3
20260902152525 88 179 0.9 5.2 0.00 0.00 0.00 56 1013.3
20260902152029 88 167 1.7 5.2 0.00 0.00 0.00 57 1013.3
20260902151556 87 0 0.9 5.2 0.00 0.00 0.00 59 1013.2
20260902151024 86 0 0.0 5.2 0.00 0.00 0.00 61 1013.2
20260902150526 86 201 1.7 6.1 0.00 0.00 0.00 61 1013.2
20260902150048 85 147 1.7 6.1 0.00 0.00 0.00 62 1013.3
20260902145524 85 135 1.7 6.1 0.00 0.00 0.00 62 1013.1
20260902145026 85 161 1.7 4.3 0.00 0.00 0.00 63 1013.1
20260902144549 84 165 0.9 7.8 0.00 0.00 0.00 64 1013.1
20260902144025 84 0 1.7 7.8 0.00 0.00 0.00 65 1013.1
20260902143524 83 150 1.7 7.8 0.00 0.00 0.00 65 1013.1
20260902143046 83 174 1.7 7.8 0.00 0.00 0.00 66 1013.0
20260902142525 83 142 3.5 7.8 0.00 0.00 0.00 66 1013.0
20260902142027 82 175 1.7 6.1 0.00 0.00 0.00 66 1013.0